Cedar Creek Reservoir Weather Center

Moon Phase Calendar



Cedar Creek Reservoir Water Level
Online Cameras

 


      

Current Conditions in Russellville
12/9/2022 1:19:56 PM

62°F
Feels Like 61
Clouds
Humidity
87%
Pressure
30.06"
Wind
5.6 mph (WNW)
Dew Point
58°F
UV Index
1/10 (Low)
Visibility
6 mi

Hourly Forecast

Date & Time Fri, Dec 9
1:00 PM
Fri, Dec 9
2:00 PM
Fri, Dec 9
3:00 PM
Fri, Dec 9
4:00 PM
Fri, Dec 9
5:00 PM
Fri, Dec 9
6:00 PM
Fri, Dec 9
7:00 PM
Fri, Dec 9
8:00 PM
Fri, Dec 9
9:00 PM
Fri, Dec 9
10:00 PM
Fri, Dec 9
11:00 PM
Sat, Dec 10
12:00 AM
Sat, Dec 10
1:00 AM
Sat, Dec 10
2:00 AM
Sat, Dec 10
3:00 AM
Sat, Dec 10
4:00 AM
Sat, Dec 10
5:00 AM
Sat, Dec 10
6:00 AM
Sat, Dec 10
7:00 AM
Sat, Dec 10
8:00 AM
Sat, Dec 10
9:00 AM
Sat, Dec 10
10:00 AM
Sat, Dec 10
11:00 AM
Sat, Dec 10
12:00 PM
Sat, Dec 10
1:00 PM
Sat, Dec 10
2:00 PM
Sat, Dec 10
3:00 PM
Sat, Dec 10
4:00 PM
Sat, Dec 10
5:00 PM
Sat, Dec 10
6:00 PM
Sat, Dec 10
7:00 PM
Sat, Dec 10
8:00 PM
Sat, Dec 10
9:00 PM
Sat, Dec 10
10:00 PM
Sat, Dec 10
11:00 PM
Sun, Dec 11
12:00 AM
Sun, Dec 11
1:00 AM
Sun, Dec 11
2:00 AM
Sun, Dec 11
3:00 AM
Sun, Dec 11
4:00 AM
Sun, Dec 11
5:00 AM
Sun, Dec 11
6:00 AM
Sun, Dec 11
7:00 AM
Sun, Dec 11
8:00 AM
Sun, Dec 11
9:00 AM
Sun, Dec 11
10:00 AM
Sun, Dec 11
11:00 AM
Sun, Dec 11
12:00 PM
Condition
Clouds

Clouds

Clouds

Clouds

Clouds

Clouds

Clouds

Clouds

Clouds

Clouds

Clouds

Clouds

Clouds

Clouds

Clouds

Clouds

Clouds

Clouds

Clouds

Clouds

Clouds

Clouds

Clouds

Clouds

Clouds

Clouds

Rain

Rain

Rain

Rain

Rain

Rain

Rain

Rain

Rain

Clouds

Clouds

Clouds

Clouds

Rain

Rain

Rain

Rain

Rain

Rain

Rain

Rain

Rain
Temperature 62°F62°F63°F63°F61°F61°F59°F58°F57°F57°F55°F55°F54°F54°F53°F53°F53°F53°F54°F55°F58°F58°F57°F58°F60°F62°F62°F61°F60°F59°F59°F58°F58°F58°F59°F58°F58°F58°F58°F58°F57°F57°F57°F57°F57°F58°F58°F57°F
Feels Like 61°F62°F63°F63°F61°F61°F59°F58°F57°F56°F55°F54°F54°F53°F53°F53°F52°F52°F53°F55°F57°F57°F57°F58°F59°F62°F62°F61°F60°F59°F59°F59°F58°F59°F59°F59°F58°F58°F58°F58°F57°F57°F57°F57°F57°F58°F58°F57°F
Cloudiness 100%100%100%100%100%100%100%97%94%95%96%97%100%100%100%99%95%96%100%100%100%100%100%100%100%100%100%100%100%100%100%100%100%100%100%100%100%100%100%100%100%100%100%100%100%100%100%100%
Visibility 6 mi6 mi6 mi6 mi6 mi6 mi6 mi6 mi6 mi6 mi6 mi6 mi6 mi6 mi6 mi6 mi6 mi6 mi6 mi6 mi6 mi6 mi6 mi6 mi6 mi6 mi6 mi6 mi6 mi6 mi6 mi5 mi4 mi6 mi6 mi6 mi5 mi2 mi3 mi3 mi2 mi5 mi6 mi6 mi4 mi6 mi3 mi1 mi
Precipitation 1%1%0%0%0%0%0%0%0%0%0%0%0%0%0%0%0%0%0%0%2%2%0%0%0%14%30%51%53%71%100%100%100%100%100%80%23%38%44%45%51%57%60%66%79%79%87%91%
Humidity 87%86%84%85%91%91%94%94%96%95%96%96%96%96%96%96%96%95%94%91%85%88%88%85%82%78%83%89%93%96%97%98%98%98%98%99%99%99%99%99%99%99%99%99%98%98%97%99%
Dew Point 58°F58°F58°F58°F59°F58°F57°F56°F55°F55°F54°F53°F53°F52°F52°F52°F51°F51°F52°F52°F53°F54°F54°F54°F54°F55°F57°F58°F58°F58°F58°F58°F57°F58°F58°F58°F58°F58°F58°F57°F57°F57°F57°F57°F57°F57°F57°F56°F
Pressure 30.06"30.06"30.06"30.09"30.09"30.12"30.12"30.15"30.15"30.15"30.15"30.15"30.15"30.15"30.15"30.12"30.12"30.15"30.15"30.15"30.18"30.18"30.18"30.12"30.09"30.09"30.09"30.09"30.06"30.09"30.09"30.09"30.09"30.09"30.09"30.06"30.06"30.06"30.09"30.06"30.09"30.09"30.09"30.09"30.09"30.06"30.06"30.03"
Wind Speed 5.6 mph6.2 mph6.3 mph4.6 mph3.4 mph3.6 mph4 mph4.2 mph4.1 mph3.7 mph3.5 mph2.9 mph2.5 mph2.9 mph3 mph3.2 mph3.1 mph3.5 mph3.2 mph3.1 mph1.3 mph2.6 mph3.6 mph4.6 mph5.6 mph6.5 mph5.4 mph3.5 mph3.4 mph0.6 mph3.2 mph4.1 mph2.9 mph1.3 mph4 mph2.5 mph2.7 mph2 mph3.8 mph4.1 mph3.8 mph2.9 mph2.4 mph3.2 mph3.6 mph5.3 mph3.4 mph4.8 mph
Wind
Direction
292°
WNW
301°
WNW
306°
NW
320°
NW
321°
NW
335°
NNW
343°
NNW
352°
N

N

N
11°
N
16°
NNE
36°
NE
61°
ENE
70°
ENE
77°
ENE
88°
E
89°
E
96°
E
117°
ESE
333°
NNW
26°
NNE
73°
ENE
106°
ESE
120°
ESE
142°
SE
156°
SSE
166°
SSE
136°
SE
70°
ENE
27°
NNE
62°
ENE
79°
E
88°
E
151°
SSE
196°
SSW
289°
WNW
26°
NNE
348°
NNW
26°
NNE

N
33°
NNE
23°
NNE
18°
NNE
28°
NNE
48°
NE
29°
NNE
346°
NNW

Daily Forecast

Date High Low Precip. Humidity
Today
Dec 9

Rain
64 °F
55 °F
100%
91%
Saturday
Dec 10

Rain
62 °F
53 °F
100%
88%
Sunday
Dec 11

Rain
58 °F
53 °F
95%
97%
Monday
Dec 12

Rain
59 °F
52 °F
20%
82%
Tuesday
Dec 13

Rain
60 °F
55 °F
20%
81%
Wednesday
Dec 14

Rain
56 °F
51 °F
100%
93%
Thursday
Dec 15

Clouds
50 °F
39 °F
2%
55%
Friday
Dec 16

Clouds
40 °F
34 °F
0%
66%
Saturday
Dec 17

Clouds
36 °F
30 °F
0%
76%
Sunday
Dec 18

Clear
43 °F
28 °F
0%
45%
Monday
Dec 19

Rain
48 °F
32 °F
94%
47%
Tuesday
Dec 20

Rain
51 °F
40 °F
100%
92%
Wednesday
Dec 21

Rain
39 °F
34 °F
100%
93%
Thursday
Dec 22

Snow
41 °F
31 °F
99%
77%
Friday
Dec 23

Clouds
41 °F
28 °F
0%
65%
Saturday
Dec 24

Rain
49 °F
30 °F
100%
50%

Temperature 8-14 Day Outlook



Precipitation 8-14 Day Outlook




Quick Links
Cedar Creek Reservoir News
Cedar Creek Reservoir Photos
Cedar Creek Reservoir Videos




About Us
Contact Us
Site Map
Search Site
Advertise With Us
   
CedarCreek.LakesOnline.com
THE CEDAR CREEK RESERVOIR WEBSITE

Copyright 2022, Lakes Online
Privacy    |    Legal